User: anonymous   Login
Location: Walnut Point State Park
(39.6958°N, 88.0345°W)
Time: 12:45:20
(UTC-05:00)
Language:

ATLAS 3B R/B - Orbit

View from above orbital plane
View from above orbital plane
View from above satellite
View from above satellite

Ground track
Ground track

The orbit data is extracted from the following two-line orbital elements,

1 28538U 05004B   15207.00630680 0.00000200  00000-0  30672-3 0    09
2 28538  63.8160 241.8221 0210000 217.1120 142.8880 13.43075574    09
Epoch (UTC): 26 July 2015 00:09:04
Eccentricity: 0.0210000
inclination: 63.8160°
perigee height: 941 km
apogee height: 1255 km
right ascension of ascending node: 241.8221°
argument of perigee: 217.1120°
revolutions per day: 13.43075574
mean anomaly at epoch: 142.8880°
orbit number at epoch: 0

The dashed part of the orbit path shows where the satellite is in the earth's shadow,  

DLR